Location: Carrières
(48.9495°N, 2.0407°E)
Time: 10:40:49
(UTC+00:00)

Cosmos 2251 Rocket - Pass Details

Date: 28 January 2023
Orbit: 764 x 791 km, 74.0° (Epoch: 23 March)

Event Time Altitude Azimuth Distance (km) Brightness Sun altitude
Rises 18:27:53 0° 202° (SSW) 3,255 7.2 -17.3°
Reaches altitude 10° 18:30:15 10° 202° (SSW) 2,335 6.4 -17.7°
Maximum altitude 18:35:34 88° 292° (WNW) 795 3.5 -18.5°
Enters shadow 18:40:43 11° 23° (NNE) 2,264 5.7 -19.4°
